Retour au catalogue

DELTA 1 DEB

ActifUNKNOWN
NORAD 2888·DEBRIS·🇺🇸 United States

Lancé Nov 6, 1965 depuis Cape Canaveral Space Force Station

Loading…

Prochains Passages (prochaines 24 heures)

TLE

FraisSource: Space-Track

Époque: Sep 8, 2026, 19:15 UTC

1 02888U 65089D   26251.80266176 -.00000120  00000-0 -34237-3 0  9993
2 02888  59.2035 167.6692 0715443 311.3550  74.7381 11.87432665584427

Suivez DELTA 1 DEB en temps réel avec AllMySat

Download on the App Store